| time (UTC) | temp C | wind direction | speed KPH | gust KPH | rain 1hr cm | rain 24hr cm | rain mn cm | humidity % | barometer mb |
| 20260503193049 | 10 | 277 | 8.0 | 17.7 | 0.00 | 0.00 | 0.00 | 76 | 1009.4 |
| 20260503191538 | 11 | 266 | 17.7 | 38.6 | 0.00 | 0.00 | 0.00 | 69 | 1009.7 |
| 20260503190046 | 11 | 262 | 19.3 | 33.8 | 0.00 | 0.00 | 0.00 | 69 | 1009.9 |
| 20260503184538 | 11 | 260 | 17.7 | 45.1 | 0.00 | 0.00 | 0.00 | 71 | 1009.9 |
| 20260503183042 | 10 | 235 | 8.0 | 9.7 | 0.00 | 0.00 | 0.00 | 75 | 1009.8 |
| 20260503181534 | 10 | 226 | 9.7 | 19.3 | 0.00 | 0.00 | 0.00 | 76 | 1009.9 |
| 20260503180042 | 10 | 262 | 17.7 | 24.1 | 0.00 | 0.00 | 0.00 | 72 | 1010.1 |
| 20260503174532 | 10 | 253 | 22.5 | 30.6 | 0.00 | 0.00 | 0.00 | 72 | 1010.1 |
| 20260503173031 | 11 | 241 | 22.5 | 27.4 | 0.00 | 0.00 | 0.00 | 69 | 1010.2 |
| 20260503171538 | 11 | 242 | 16.1 | 20.9 | 0.00 | 0.00 | 0.00 | 70 | 1010.3 |
| 20260503140119 | 9 | 232 | 11.3 | 24.1 | 0.00 | 0.00 | 0.00 | 53 | 1012.1 |
| 20260503081535 | 6 | 242 | 22.5 | 29.0 | 0.00 | 0.00 | 0.00 | 73 | 1013.7 |
| 20260503071513 | 1 | 180 | 0.0 | 4.8 | 0.00 | 0.00 | 0.00 | 80 | 1013.6 |
| 20260503060111 | 0 | 141 | 0.0 | 4.8 | 0.00 | 0.00 | 0.00 | 81 | 1014.1 |
| 20260503054556 | 0 | 138 | 0.0 | 1.6 | 0.00 | 0.00 | 0.00 | 81 | 1014.2 |
| 20260503053053 | 0 | 130 | 0.0 | 0.0 | 0.00 | 0.00 | 0.00 | 81 | 1014.3 |
| 20260503051557 | 0 | 141 | 0.0 | 1.6 | 0.00 | 0.00 | 0.00 | 81 | 1014.5 |
| 20260503050049 | 0 | 140 | 0.0 | 0.0 | 0.00 | 0.00 | 0.00 | 81 | 1014.6 |
| 20260503044548 | 0 | 142 | 0.0 | 0.0 | 0.00 | 0.00 | 0.00 | 82 | 1014.8 |
| 20260503043147 | 0 | 141 | 0.0 | 1.6 | 0.00 | 0.00 | 0.00 | 81 | 1014.9 |
| 20260503041544 | 1 | 146 | 0.0 | 1.6 | 0.00 | 0.00 | 0.00 | 80 | 1015.0 |
| 20260503040042 | 1 | 143 | 0.0 | 3.2 | 0.00 | 0.00 | 0.00 | 79 | 1015.0 |
| 20260503034542 | 1 | 143 | 0.0 | 1.6 | 0.00 | 0.00 | 0.00 | 78 | 1015.0 |
| 20260503033045 | 1 | 143 | 0.0 | 0.0 | 0.00 | 0.00 | 0.00 | 77 | 1015.1 |
| 20260503031540 | 1 | 148 | 0.0 | 1.6 | 0.00 | 0.00 | 0.00 | 77 | 1015.3 |
| 20260503030038 | 1 | 148 | 0.0 | 0.0 | 0.00 | 0.00 | 0.00 | 77 | 1015.2 |
| 20260503024539 | 1 | 152 | 0.0 | 0.0 | 0.00 | 0.00 | 0.00 | 75 | 1015.3 |
| 20260503023034 | 1 | 141 | 0.0 | 1.6 | 0.00 | 0.00 | 0.00 | 73 | 1015.5 |
| 20260503021533 | 1 | 143 | 0.0 | 1.6 | 0.00 | 0.00 | 0.00 | 72 | 1015.6 |
| 20260503020034 | 1 | 141 | 0.0 | 1.6 | 0.00 | 0.00 | 0.00 | 72 | 1015.5 |
| 20260503014542 | 1 | 141 | 0.0 | 1.6 | 0.00 | 0.00 | 0.00 | 72 | 1015.5 |
| 20260503013034 | 2 | 139 | 0.0 | 1.6 | 0.00 | 0.00 | 0.00 | 72 | 1015.5 |
| 20260503011530 | 2 | 138 | 0.0 | 1.6 | 0.00 | 0.00 | 0.00 | 70 | 1015.5 |
| 20260503010025 | 2 | 139 | 0.0 | 1.6 | 0.00 | 0.00 | 0.00 | 66 | 1015.5 |
| 20260503004528 | 3 | 137 | 0.0 | 1.6 | 0.00 | 0.00 | 0.00 | 63 | 1015.5 |
| 20260503003023 | 5 | 195 | 0.0 | 0.0 | 0.00 | 0.00 | 0.00 | 57 | 1015.5 |
| 20260503001525 | 7 | 214 | 0.0 | 0.0 | 0.00 | 0.00 | 0.00 | 52 | 1015.5 |
| 20260503000022 | 8 | 259 | 0.0 | 1.6 | 0.00 | 0.00 | 0.00 | 46 | 1015.7 |
| 20260502234520 | 8 | 277 | 0.0 | 1.6 | 0.00 | 0.00 | 0.00 | 50 | 1015.6 |
| 20260502233017 | 8 | 277 | 0.0 | 1.6 | 0.00 | 0.00 | 0.00 | 49 | 1015.7 |
| 20260502231516 | 7 | 286 | 0.0 | 1.6 | 0.00 | 0.00 | 0.00 | 53 | 1015.8 |
| 20260502230015 | 7 | 282 | 0.0 | 1.6 | 0.00 | 0.00 | 0.00 | 54 | 1015.8 |
| 20260502224508 | 7 | 287 | 0.0 | 3.2 | 0.00 | 0.00 | 0.00 | 55 | 1016.0 |
| 20260502223005 | 6 | 285 | 0.0 | 3.2 | 0.00 | 0.00 | 0.00 | 58 | 1016.1 |
| 20260502221502 | 6 | 277 | 1.6 | 4.8 | 0.00 | 0.00 | 0.00 | 59 | 1016.1 |
| 20260502220001 | 6 | 308 | 0.0 | 6.4 | 0.00 | 0.00 | 0.00 | 59 | 1016.2 |
| 20260502214600 | 5 | 315 | 3.2 | 6.4 | 0.00 | 0.00 | 0.00 | 60 | 1016.3 |
| 20260502213120 | 5 | 255 | 1.6 | 8.0 | 0.00 | 0.00 | 0.00 | 60 | 1016.3 |
| 20260502211625 | 5 | 263 | 3.2 | 8.0 | 0.00 | 0.00 | 0.00 | 64 | 1016.3 |
| 20260502210055 | 5 | 269 | 4.8 | 8.0 | 0.00 | 0.00 | 0.00 | 66 | 1016.4 |
| 20260502204551 | 5 | 290 | 4.8 | 8.0 | 0.00 | 0.00 | 0.00 | 65 | 1016.5 |
| 20260502203058 | 5 | 285 | 4.8 | 8.0 | 0.00 | 0.00 | 0.00 | 64 | 1016.6 |
| 20260502201555 | 5 | 318 | 4.8 | 8.0 | 0.00 | 0.00 | 0.00 | 63 | 1016.7 |
| 20260502200049 | 5 | 293 | 3.2 | 6.4 | 0.00 | 0.00 | 0.00 | 61 | 1016.9 |
| 20260502194554 | 5 | 274 | 3.2 | 8.0 | 0.00 | 0.00 | 0.00 | 67 | 1017.1 |